Starlink 33842

operational
NORAD ID: 63782 Int'l Des: 2025-091 Owner: SPXS Country: US Constellation: starlink
LEOCIRCULAR

关于 Starlink 33842

正在加载描述...

实时位置

正在加载3D地球...

即将过境

高度历史

Altitude vs Time

uPlot chart will show altitude changes over time

两行轨道根数

1 63782U 25091H 26034.96107985 .00033775 00000-0 12309-2 0 9995
2 63782 43.0029 243.0303 0001739 274.7752 85.2901 15.27589974 43835
Epoch: Feb 3, 2026 • Age: 14 hours

当前状态

高度 482.1 km
速度 7.63 km/s
星下点 8.30°N, 84.71°W
发射日期 May 2, 2025
运行时间 0.7 years
类型 internet

技术详情

分类 Payload
质量 575.00 kg
干质量 530.00 kg
总质量 575.00 kg
长度 0.30 m
直径 4.10 m
跨度 29.00 m
形状 Box + pan
制造商 SPXS
平台类型 Starlink V2MO
阶段状态 In Orbit
所有者/国家 SPXS/US

大型星座

Loading constellations...